THY6933 LTFM-LGIR

Flight info

Callsign THY6933
Flight time 1h 15m
Altitude 34000
Route IVGUS1D IVGUS UY227 RAUMA UG80 IMR UR32 REDRA DCT RIPLI UY145 GIVIS DCT XAVIS XAVIS1A
Aircraft B738/M-SDE2E3FGHIRWXY/LB1

Departure

Time 2026-05-01 09:33
Airport İstanbul Airport (LTFM)

Arrival

Time 2026-05-01 10:49
Airport Heraklion International Nikos Kazantzakis Airport (LGIR)
Time Latitude Longitude Altitude Speed Heading
2026-05-01 08:55 41.26634 28.73434 322 ft 0 kts 71°
2026-05-01 09:22 41.26633 28.73429 322 ft 2 kts 71°
2026-05-01 09:23 41.26627 28.73409 322 ft 2 kts 71°
2026-05-01 09:23 41.26613 28.73374 322 ft 2 kts 43°
2026-05-01 09:24 41.26582 28.73354 322 ft 2 kts
2026-05-01 09:24 41.26564 28.73355 322 ft 1 kts 348°
2026-05-01 09:24 41.26557 28.73358 322 ft 0 kts 345°
2026-05-01 09:27 41.26573 28.73352 322 ft 4 kts 342°
2026-05-01 09:28 41.26597 28.73318 321 ft 5 kts 293°
2026-05-01 09:28 41.26600 28.73262 321 ft 6 kts 269°
2026-05-01 09:28 41.26599 28.73193 321 ft 6 kts 269°
2026-05-01 09:28 41.26599 28.73123 321 ft 6 kts 270°
2026-05-01 09:29 41.26598 28.73002 322 ft 3 kts 270°
2026-05-01 09:29 41.26598 28.72972 322 ft 0 kts 271°
2026-05-01 09:30 41.26598 28.72957 322 ft 1 kts 271°
2026-05-01 09:30 41.26598 28.72937 322 ft 2 kts 271°
2026-05-01 09:30 41.26595 28.72793 322 ft 12 kts 269°
2026-05-01 09:31 41.26595 28.72687 323 ft 10 kts 270°
2026-05-01 09:31 41.26595 28.72593 323 ft 9 kts 271°
2026-05-01 09:31 41.26595 28.72542 323 ft 1 kts 271°
2026-05-01 09:32 41.26598 28.72535 323 ft 0 kts 307°
2026-05-01 09:32 41.26614 28.72519 323 ft 6 kts 334°
2026-05-01 09:32 41.26701 28.72512 322 ft 21 kts
2026-05-01 09:33 41.27085 28.72507 319 ft 88 kts 359°
2026-05-01 09:33 41.27908 28.72494 303 ft 146 kts
2026-05-01 09:33 41.29974 28.72405 1678 ft 145 kts
2026-05-01 09:34 41.30946 28.72390 2282 ft 146 kts
2026-05-01 09:34 41.32015 28.72414 2694 ft 157 kts
2026-05-01 09:34 41.34351 28.72467 3476 ft 187 kts
2026-05-01 09:35 41.35697 28.72447 3862 ft 207 kts 358°
2026-05-01 09:35 41.38137 28.69972 4727 ft 262 kts 294°
2026-05-01 09:35 41.38402 28.67477 5305 ft 279 kts 274°
2026-05-01 09:36 41.38312 28.64879 6028 ft 284 kts 270°
2026-05-01 09:36 41.38140 28.62305 6835 ft 285 kts 263°
2026-05-01 09:36 41.37591 28.59790 7589 ft 289 kts 248°
2026-05-01 09:36 41.36489 28.57562 8342 ft 292 kts 226°
2026-05-01 09:37 41.34825 28.55991 9101 ft 294 kts 205°
2026-05-01 09:37 41.30855 28.54959 10462 ft 299 kts 180°
2026-05-01 09:37 41.28728 28.55025 10795 ft 315 kts 178°
2026-05-01 09:38 41.24167 28.55044 11498 ft 343 kts 190°
2026-05-01 09:38 41.21857 28.54233 12107 ft 347 kts 201°
2026-05-01 09:38 41.19588 28.53046 12776 ft 351 kts 205°
2026-05-01 09:39 41.15065 28.50512 14207 ft 357 kts 205°
2026-05-01 09:39 41.12777 28.49290 14985 ft 358 kts 205°
2026-05-01 09:39 41.10479 28.48106 15717 ft 360 kts 205°
2026-05-01 09:40 41.08128 28.46922 16483 ft 361 kts 205°
2026-05-01 09:40 41.03348 28.44912 17920 ft 366 kts 199°
2026-05-01 09:40 41.00847 28.44148 18580 ft 368 kts 197°
2026-05-01 09:41 40.98343 28.43431 19206 ft 370 kts 197°
2026-05-01 09:41 40.93528 28.41246 20474 ft 364 kts 214°
2026-05-01 09:41 40.91487 28.39347 21087 ft 361 kts 224°
2026-05-01 09:42 40.89711 28.36985 21610 ft 362 kts 232°
2026-05-01 09:42 40.88204 28.34374 22188 ft 363 kts 237°
2026-05-01 09:42 40.85732 28.28566 23348 ft 365 kts 247°
2026-05-01 09:43 40.84369 28.22067 24286 ft 374 kts 257°
2026-05-01 09:43 40.83884 28.18710 24842 ft 376 kts 258°
2026-05-01 09:43 40.83417 28.15294 25309 ft 379 kts 258°
2026-05-01 09:44 40.82459 28.08438 26246 ft 384 kts 258°
2026-05-01 09:44 40.81961 28.04997 26690 ft 387 kts 258°
2026-05-01 09:44 40.81440 28.01474 27139 ft 389 kts 257°
2026-05-01 09:45 40.80922 27.98012 27607 ft 391 kts 257°
2026-05-01 09:45 40.79881 27.90962 28450 ft 396 kts 259°
2026-05-01 09:45 40.79534 27.87336 28907 ft 398 kts 263°
2026-05-01 09:46 40.79396 27.83683 29294 ft 401 kts 266°
2026-05-01 09:46 40.79355 27.80018 29705 ft 403 kts 266°
2026-05-01 09:46 40.79092 27.76343 30060 ft 403 kts 258°
2026-05-01 09:46 40.78369 27.72805 30430 ft 404 kts 250°
2026-05-01 09:47 40.77286 27.69422 30756 ft 406 kts 244°
2026-05-01 09:47 40.75876 27.66204 31230 ft 404 kts 238°
2026-05-01 09:47 40.74186 27.63238 31656 ft 403 kts 232°
2026-05-01 09:47 40.72251 27.60575 32000 ft 405 kts 226°
2026-05-01 09:48 40.70088 27.58232 32277 ft 409 kts 219°
2026-05-01 09:48 40.67675 27.56206 32598 ft 410 kts 213°
2026-05-01 09:48 40.65126 27.54583 32850 ft 415 kts 207°
2026-05-01 09:48 40.62392 27.53330 33080 ft 420 kts 201°
2026-05-01 09:49 40.59525 27.52424 33351 ft 422 kts 198°
2026-05-01 09:49 40.56617 27.51802 33558 ft 427 kts 192°
2026-05-01 09:49 40.53661 27.51601 33800 ft 432 kts 186°
2026-05-01 09:49 40.50640 27.51757 34066 ft 434 kts 185°
2026-05-01 09:50 40.47642 27.51700 34186 ft 431 kts 191°
2026-05-01 09:50 40.44686 27.51240 34175 ft 425 kts 196°
2026-05-01 09:50 40.39012 27.49442 34189 ft 419 kts 202°
2026-05-01 09:51 40.33492 27.47070 34178 ft 417 kts 205°
2026-05-01 09:51 40.28013 27.44542 34165 ft 416 kts 206°
2026-05-01 09:52 40.22584 27.42019 34165 ft 415 kts 206°
2026-05-01 09:52 40.17133 27.39501 34169 ft 417 kts 206°
2026-05-01 09:53 40.11670 27.36994 34167 ft 416 kts 206°
2026-05-01 09:53 40.06209 27.34498 34161 ft 415 kts 206°
2026-05-01 09:54 40.00762 27.32037 34151 ft 415 kts 205°
2026-05-01 09:54 39.95139 27.30216 34149 ft 423 kts 197°
2026-05-01 09:55 39.89274 27.29055 34137 ft 426 kts 195°
2026-05-01 09:55 39.83391 27.28037 34138 ft 428 kts 195°
2026-05-01 09:56 39.77513 27.27031 34131 ft 428 kts 194°
2026-05-01 09:56 39.71602 27.26061 34125 ft 429 kts 194°
2026-05-01 09:57 39.65699 27.25091 34109 ft 428 kts 194°
2026-05-01 09:57 39.59803 27.24111 34112 ft 428 kts 195°
2026-05-01 09:58 39.53894 27.23122 34119 ft 429 kts 195°
2026-05-01 09:58 39.47975 27.22120 34122 ft 430 kts 195°
2026-05-01 09:59 39.42105 27.21058 34121 ft 426 kts 196°
2026-05-01 09:59 39.36190 27.19949 34110 ft 431 kts 196°
2026-05-01 10:00 39.30273 27.18850 34108 ft 429 kts 196°
2026-05-01 10:00 39.24376 27.17761 34093 ft 429 kts 196°
2026-05-01 10:01 39.18475 27.16679 34097 ft 431 kts 196°
2026-05-01 10:01 39.12561 27.15597 34094 ft 428 kts 196°
2026-05-01 10:02 39.06636 27.14515 34104 ft 431 kts 196°
2026-05-01 10:02 39.00718 27.13438 34074 ft 428 kts 196°
2026-05-01 10:03 38.94840 27.12356 34090 ft 431 kts 196°
2026-05-01 10:03 38.88895 27.11249 34086 ft 431 kts 197°
2026-05-01 10:04 38.82967 27.10148 34082 ft 430 kts 197°
2026-05-01 10:04 38.76997 27.09038 34066 ft 434 kts 197°
2026-05-01 10:05 38.71044 27.07942 34072 ft 432 kts 197°
2026-05-01 10:05 38.65098 27.06846 34066 ft 433 kts 197°
2026-05-01 10:06 38.59140 27.05747 34058 ft 434 kts 197°
2026-05-01 10:06 38.53198 27.04656 34064 ft 435 kts 198°
2026-05-01 10:07 38.47188 27.03551 34046 ft 436 kts 197°
2026-05-01 10:07 38.41180 27.02455 34056 ft 435 kts 198°
2026-05-01 10:08 38.32629 26.99547 34051 ft 414 kts 218°
2026-05-01 10:09 38.28138 26.95338 34046 ft 396 kts 231°
2026-05-01 10:09 38.24372 26.90297 34047 ft 391 kts 236°
2026-05-01 10:10 38.20805 26.85086 34046 ft 391 kts 237°
2026-05-01 10:10 38.15465 26.77264 34049 ft 393 kts 236°
2026-05-01 10:11 38.11877 26.72071 34049 ft 392 kts 236°
2026-05-01 10:11 38.08286 26.66899 34045 ft 391 kts 237°
2026-05-01 10:12 38.04693 26.61747 34042 ft 390 kts 237°
2026-05-01 10:13 37.99302 26.54025 34044 ft 390 kts 237°
2026-05-01 10:13 37.95821 26.48779 34053 ft 386 kts 240°
2026-05-01 10:14 37.91048 26.40661 34045 ft 385 kts 242°
2026-05-01 10:14 37.87862 26.35250 34049 ft 385 kts 242°
2026-05-01 10:15 37.84640 26.29844 34047 ft 384 kts 240°
2026-05-01 10:15 37.81419 26.24480 34046 ft 384 kts 240°
2026-05-01 10:16 37.78185 26.19113 34049 ft 385 kts 240°
2026-05-01 10:17 37.73313 26.11053 34053 ft 384 kts 241°
2026-05-01 10:17 37.68450 26.03021 34053 ft 384 kts 241°
2026-05-01 10:18 37.63581 25.95001 34053 ft 384 kts 241°
2026-05-01 10:19 37.60337 25.89671 34061 ft 383 kts 241°
2026-05-01 10:19 37.57112 25.84378 34059 ft 385 kts 241°
2026-05-01 10:20 37.52220 25.76368 34060 ft 383 kts 241°
2026-05-01 10:20 37.48970 25.71056 34066 ft 384 kts 241°
2026-05-01 10:21 37.44123 25.63158 34063 ft 383 kts 241°
2026-05-01 10:22 37.39246 25.55217 34061 ft 382 kts 241°
2026-05-01 10:23 37.34351 25.47282 34059 ft 383 kts 240°
2026-05-01 10:23 37.30607 25.42459 34063 ft 400 kts 227°
2026-05-01 10:23 37.28176 25.40562 34063 ft 414 kts 218°
2026-05-01 10:24 37.22625 25.38103 34065 ft 436 kts 204°
2026-05-01 10:24 37.16449 25.37566 34062 ft 459 kts 188°
2026-05-01 10:25 37.03568 25.39524 34060 ft 467 kts 183°
2026-05-01 10:26 36.97138 25.40558 34058 ft 467 kts 184°
2026-05-01 10:26 36.90705 25.41495 33858 ft 463 kts 184°
2026-05-01 10:27 36.84384 25.42367 32820 ft 456 kts 185°
2026-05-01 10:27 36.78110 25.43201 31731 ft 450 kts 185°
2026-05-01 10:28 36.74995 25.43615 31208 ft 446 kts 185°
2026-05-01 10:28 36.68874 25.44423 30159 ft 439 kts 185°
2026-05-01 10:28 36.65856 25.44821 29639 ft 436 kts 184°
2026-05-01 10:29 36.59905 25.45601 28602 ft 429 kts 184°
2026-05-01 10:29 36.56949 25.45987 28073 ft 426 kts 184°
2026-05-01 10:30 36.51094 25.46750 27042 ft 418 kts 183°
2026-05-01 10:30 36.45366 25.47497 26016 ft 412 kts 183°
2026-05-01 10:31 36.39761 25.47874 25008 ft 396 kts 192°
2026-05-01 10:31 36.34448 25.46972 23997 ft 379 kts 200°
2026-05-01 10:32 36.29351 25.45516 23032 ft 370 kts 202°
2026-05-01 10:32 36.26870 25.44768 22553 ft 366 kts 202°
2026-05-01 10:32 36.21963 25.43309 21623 ft 360 kts 201°
2026-05-01 10:33 36.17150 25.41910 20702 ft 354 kts 201°
2026-05-01 10:33 36.12268 25.41027 19750 ft 359 kts 185°
2026-05-01 10:34 36.09797 25.41448 19287 ft 365 kts 173°
2026-05-01 10:34 36.07356 25.42290 18819 ft 365 kts 169°
2026-05-01 10:34 36.04940 25.43276 18346 ft 364 kts 167°
2026-05-01 10:35 36.00202 25.45305 17409 ft 359 kts 167°
2026-05-01 10:35 35.97835 25.46299 16940 ft 357 kts 167°
2026-05-01 10:35 35.95508 25.47255 16480 ft 355 kts 168°
2026-05-01 10:35 35.93166 25.48204 16016 ft 352 kts 168°
2026-05-01 10:36 35.88533 25.50064 15090 ft 349 kts 167°
2026-05-01 10:36 35.86222 25.50990 14631 ft 347 kts 167°
2026-05-01 10:36 35.83938 25.51903 14162 ft 345 kts 167°
2026-05-01 10:37 35.81685 25.52804 13710 ft 342 kts 167°
2026-05-01 10:37 35.77166 25.54607 12815 ft 338 kts 167°
2026-05-01 10:37 35.74947 25.55492 12363 ft 336 kts 167°
2026-05-01 10:38 35.72718 25.56380 11918 ft 334 kts 167°
2026-05-01 10:38 35.70530 25.57275 11447 ft 334 kts 164°
2026-05-01 10:38 35.68449 25.58514 11072 ft 334 kts 152°
2026-05-01 10:38 35.66554 25.60190 10710 ft 332 kts 145°
2026-05-01 10:39 35.64815 25.61979 10408 ft 327 kts 143°
2026-05-01 10:39 35.63068 25.63683 10259 ft 311 kts 154°
2026-05-01 10:39 35.61097 25.64453 10063 ft 287 kts 183°
2026-05-01 10:39 35.59182 25.64147 9672 ft 271 kts 204°
2026-05-01 10:40 35.57510 25.63199 9168 ft 264 kts 217°
2026-05-01 10:40 35.56093 25.61842 8639 ft 260 kts 228°
2026-05-01 10:40 35.54885 25.60188 8122 ft 257 kts 237°
2026-05-01 10:40 35.53929 25.58352 7677 ft 257 kts 243°
2026-05-01 10:41 35.53082 25.56451 7322 ft 256 kts 243°
2026-05-01 10:41 35.52231 25.54526 6961 ft 255 kts 243°
2026-05-01 10:41 35.50495 25.50755 6292 ft 252 kts 242°
2026-05-01 10:42 35.49634 25.48922 5972 ft 250 kts 242°
2026-05-01 10:42 35.48766 25.47076 5654 ft 249 kts 242°
2026-05-01 10:42 35.47899 25.45237 5335 ft 248 kts 242°
2026-05-01 10:42 35.47041 25.43423 5022 ft 247 kts 240°
2026-05-01 10:43 35.46024 25.41717 4866 ft 249 kts 226°
2026-05-01 10:43 35.44539 25.40656 4786 ft 247 kts 193°
2026-05-01 10:43 35.42883 25.40700 4740 ft 236 kts 165°
2026-05-01 10:43 35.41425 25.41502 4680 ft 224 kts 151°
2026-05-01 10:44 35.40092 25.42433 4595 ft 214 kts 151°
2026-05-01 10:44 35.38810 25.43302 4528 ft 211 kts 154°
2026-05-01 10:44 35.37433 25.43900 4462 ft 211 kts 176°
2026-05-01 10:44 35.36013 25.43511 4334 ft 211 kts 217°
2026-05-01 10:45 35.35094 25.42174 4017 ft 209 kts 246°
2026-05-01 10:45 35.34521 25.40528 3730 ft 208 kts 250°
2026-05-01 10:45 35.33952 25.38908 3435 ft 206 kts 248°
2026-05-01 10:45 35.33358 25.37344 3165 ft 201 kts 247°
2026-05-01 10:46 35.32817 25.35751 2651 ft 209 kts 258°
2026-05-01 10:46 35.32757 25.34026 2361 ft 192 kts 281°
2026-05-01 10:46 35.32952 25.32473 2293 ft 184 kts 282°
2026-05-01 10:46 35.33102 25.30939 2126 ft 176 kts 279°
2026-05-01 10:47 35.33199 25.29500 1993 ft 165 kts 279°
2026-05-01 10:47 35.33289 25.28166 1786 ft 165 kts 279°
2026-05-01 10:47 35.33388 25.26802 1471 ft 159 kts 280°
2026-05-01 10:47 35.33486 25.25441 1234 ft 158 kts 279°
2026-05-01 10:48 35.33575 25.24133 1001 ft 158 kts 278°
2026-05-01 10:48 35.33638 25.22777 770 ft 157 kts 277°
2026-05-01 10:48 35.33717 25.21493 510 ft 155 kts 279°
2026-05-01 10:48 35.33809 25.20249 289 ft 153 kts 278°
2026-05-01 10:49 35.33907 25.18961 119 ft 151 kts 278°
2026-05-01 10:49 35.33998 25.17746 91 ft 111 kts 276°
2026-05-01 10:49 35.34040 25.17120 89 ft 44 kts 275°
2026-05-01 10:49 35.34052 25.16892 90 ft 11 kts 272°
2026-05-01 10:50 35.34024 25.16857 91 ft 5 kts 146°
2026-05-01 10:50 35.34007 25.16881 92 ft 2 kts 128°
2026-05-01 10:50 35.33995 25.16899 93 ft 4 kts 128°
2026-05-01 10:50 35.33975 25.16933 94 ft 5 kts 119°
2026-05-01 10:51 35.33960 25.16966 94 ft 4 kts 119°
2026-05-01 10:51 35.33946 25.17004 94 ft 7 kts 90°
2026-05-01 10:51 35.33939 25.17086 93 ft 11 kts 94°
2026-05-01 10:51 35.33933 25.17175 93 ft 10 kts 95°
2026-05-01 10:52 35.33928 25.17256 96 ft 9 kts 94°
2026-05-01 10:52 35.33924 25.17307 99 ft 2 kts 95°
2026-05-01 10:52 35.33923 25.17327 101 ft 3 kts 95°
2026-05-01 10:52 35.33920 25.17371 103 ft 7 kts 95°
2026-05-01 10:53 35.33914 25.17458 107 ft 9 kts 95°
2026-05-01 10:53 35.33909 25.17523 108 ft 8 kts 95°
2026-05-01 10:53 35.33902 25.17612 106 ft 9 kts 111°
2026-05-01 10:53 35.33870 25.17625 108 ft 3 kts 184°
2026-05-01 10:54 35.33833 25.17622 110 ft 6 kts 184°
2026-05-01 10:54 35.33798 25.17618 112 ft 3 kts 193°
2026-05-01 10:54 35.33787 25.17598 113 ft 3 kts 270°
2026-05-01 10:54 35.33789 25.17582 114 ft 3 kts 279°
2026-05-01 10:55 35.33794 25.17563 115 ft 2 kts 298°
2026-05-01 10:55 35.33806 25.17548 116 ft 1 kts 317°
2026-05-01 10:55 35.33810 25.17544 116 ft 0 kts 316°